Regional Weather Roundup
Issued by NWS

Home | Current Version | Previous Version | Graphics & Text | Print | Product List | Glossary On
Versions: 1 2 3 4 5 6 7 8 9 10 11 12 13 14 15 16 17 18 19 20 21 22 23 24 25 26 27 28 29 30 31 32 33 34 35 36 37 38 39 40 41 42 43 44 45 46 47 48 49 50
000
ASUS43 KIND 171859
RWRIN

WEATHER ROUNDUP FOR INDIANA
NATIONAL WEATHER SERVICE INDIANAPOLIS IN
200 PM EST SAT FEB 17 2018

NOTE: "FAIR" INDICATES FEW OR NO CLOUDS BELOW 12,000 FEET WITH NO
SIGNIFICANT WEATHER AND/OR OBSTRUCTIONS TO VISIBILITY.

* - STATION DOES NOT REPORT WEATHER SUCH AS PRECIPITATION OR FOG.

+ - STATION NOT QUALITY CONTROLLED BY THE NATIONAL WEATHER SERVICE.
    USE DATA WITH CAUTION...ESPECIALLY DEWPOINT AND RELATIVE
    HUMIDITY OBSERVATIONS.

INZ001>003-010>013-019-020-172000-
NORTHWEST INDIANA

CITY           SKY/WX    TMP DP  RH WIND       PRES   REMARKS
GARY /AIRPORT/ CLOUDY    36  25  64 SW6       29.99F WCI  31
KNOX *+        CLOUDY    34  28  80 S9        30.00F WCI  26
MONTICELLO +   CLOUDY    34  27  77 SW7       30.00F WCI  28
RENSSELAER +   CLOUDY    34  27  75 S9        29.98F WCI  26

$$

LMZ046-743>745-172000-
SOUTHERN LAKE MICHIGAN

STATION/POSITION TIME  TEMP    WIND        PRES    WAVE
                       AIR SEA DIR/SP/G            HT
                 (UTC) (F)     (DEG/KT/KT) (MB)    (FT)
BURNS HARBOR     1840   33     190/ 12/ 15 1015.6F
MICHIGAN CITY    1830   32     160/ 13/ 15   N/A

$$

INZ004-005-014>016-021>024-172000-
NORTH CENTRAL INDIANA

CITY           SKY/WX    TMP DP  RH WIND       PRES   REMARKS
ELKHART        MOSUNNY   32  25  74 S9        30.00F WCI  24
GOSHEN         PTSUNNY   34  25  69 S10       29.99F WCI  26
PERU/GRISSOM   CLOUDY    35  32  90 S5        30.00F WCI  31
SOUTH BEND     PTSUNNY   32  25  75 S8        29.99F WCI  25
WARSAW +       FAIR      34  27  75 SW6       30.00F WCI  29

$$

INZ006>009-017-018-025>027-172000-
NORTHEAST INDIANA

CITY           SKY/WX    TMP DP  RH WIND       PRES   REMARKS
AUBURN +       PTSUNNY   34  27  75 S3        30.01F
FORT WAYNE     PTSUNNY   34  28  79 S6        30.01F WCI  29
KENDALLVILLE + FAIR      33  27  77 SW9       29.99F WCI  25

$$

INZ028-029-035-036-043>045-051>053-172000-
WEST CENTRAL INDIANA

CITY           SKY/WX    TMP DP  RH WIND       PRES   REMARKS
GREENCASTLE +  CLOUDY    32  32 100 S7        30.00F WCI  26
LAFAYETTE      CLOUDY    34  28  79 S6        30.00F WCI  29
TERRE HAUTE    CLOUDY    35  33  92 S12       30.01F WCI  27

$$

INZ030>032-037>040-046>048-054>057-064-065-172000-
CENTRAL INDIANA

CITY           SKY/WX    TMP DP  RH WIND       PRES   REMARKS
ANDERSON       CLOUDY    34  30  86 S7        30.01F WCI  28
COLUMBUS       LGT SNOW  32  30  93 S6        30.03F FOG     WCI  26
GREENWOOD *+   CLOUDY   N/A N/A N/A S8        30.02F
INDIANAPOLIS   CLOUDY    34  32  92 S14       30.00F WCI  25
-EAGLE CREEK   CLOUDY    34  30  85 S6        30.00F WCI  29
KOKOMO +       CLOUDY    34  28  79 S8        30.01F WCI  27
MT COMFORT *+  CLOUDY    32  32 100 S12       30.00F WCI  23
SHELBYVILLE    LGT SNOW  34  31  88 S10       30.01F FOG     WCI  26

$$

INZ033-034-041-042-049-050-058-059-172000-
EAST CENTRAL INDIANA

CITY           SKY/WX    TMP DP  RH WIND       PRES   REMARKS
MUNCIE         CLOUDY    35  29  78 SW8       30.00F WCI  29
RICHMOND +     LGT SNOW  32  32 100 S6        30.02F WCI  26

$$

INZ060-061-067>069-081>083-085>088-172000-
SOUTHWEST INDIANA

CITY           SKY/WX    TMP DP  RH WIND       PRES   REMARKS
EVANSVILLE     LGT RAIN  34  33  96 E3        30.04F VSB 1
HUNTINGBURG +  LGT SNOW  34  33  96 SE6       30.04F FOG     WCI  29

$$

INZ062-063-066-070>080-084-089>092-172000-
SOUTH CENTRAL AND SOUTHEAST INDIANA

CITY           SKY/WX    TMP DP  RH WIND       PRES   REMARKS
BLOOMINGTON    LGT SNOW  33  31  92 S6        30.01F FOG     WCI  28
FRENCH LICK *+ CLOUDY    32 N/A N/A CALM      30.02F
SEYMOUR +      LGT RAIN  34  34 100 SE3       30.03F

$$





USA.gov is the U.S. government's official web portal to all federal, state and local government web resources and services.